Content
SEND FEEDBACK

Daily
Averages
Monthly
Summary
Italy

PERUGIA, ITALY


Home > Europe > Italy
Elevation: 1677 feet     Latitude: 43 07N     Longitude: 012 23E

WEATHER
 
SELECT A DAY
Number of Records: 107,153;   Date Range: 7/1/96 - 7/27/14
 
SHARE

PRINT THIS DATA

[ ← Previous Day ]
WEATHER ALMANAC - MAY 7, 2013
[ Next Day → ]
[ °C ]   °F
Weather ElementAverageHighLow
Temperature59.6 °F64.4 °F (3:50 pm)57.2 °F (6:50 am)
Dewpoint57.3 °F59 °F (4:50 pm)57.2 °F (6:50 am)
Humidity92.6 %100 % (6:50 am)77 % (3:50 pm)
Barometer30.01 in30.04 in (10:50 am)29.98 in (3:50 pm)
Wind Speed3.8 mph6.9 mph (9:50 am)
Weather ElementAverage
Visibility4.3 mi
Wind DirectionENE (71.1 °)

Weather ElementTotal
Precipitation---
Heating Degree Days4.2 (Base 65)
Growing Degree Days10.8 (Base 50)
Averaged from 19 records on May 7, 2013
WEATHER CONDITIONS BREAKOUT
WIND DIRECTION BREAKOUT
WEATHER BY HOUR - MAY 7, 2013
[ °C ]   °F
Local TimeTemperatureDewpointHumidityBarometerVisibilityWind DirectionWind SpeedGust SpeedPrecipitationEventsConditions
6:50 AM57.2 °F57.2 °F100 %30.01 in1.6 miVariable2.3 mphDrizzle
7:50 AM57.2 °F57.2 °F100 %30.01 in1.2 miVariable2.3 mphRainRain
8:50 AM57.2 °F57.2 °F100 %30.01 in1.1 miSE (130°)5.8 mphRainRain
9:50 AM57.2 °F57.2 °F100 %30.01 in1.2 miSE (130°)6.9 mphRainRain
10:50 AM57.2 °F57.2 °F100 %30.04 in1.2 miSE (130°)5.8 mphLight Drizzle
11:50 AM59.0 °F57.2 °F94 %30.04 in3.7 miSE (130°)4.6 mphMostly Cloudy
12:01 PM59.0 °F57.2 °F94 %30.04 in2.8 miESE (120°)4.6 mphRainRain
12:50 PM57.2 °F57.2 °F100 %30.04 in2.8 miSE (140°)4.6 mphRainLight Rain
1:50 PM60.8 °F57.2 °F88 %30.04 in6.2 miSE (130°)6.9 mphMostly Cloudy
2:50 PM62.6 °F57.2 °F82 %30.01 in6.2 miESE (110°)4.6 mphMostly Cloudy
3:50 PM64.4 °F57.2 °F77 %29.98 in6.2 miVariable2.3 mphScattered Clouds
4:50 PM64.4 °F59.0 °F83 %29.98 in6.2 miVariable2.3 mphScattered Clouds
5:50 PM64.4 °F57.2 °F77 %29.98 in6.2 miVariable2.3 mphScattered Clouds
6:10 PM62.6 °F57.2 °F82 %29.98 in6.2 miVariable1.2 mphRain-ThunderstormThunderstorms and Rain
6:50 PM59.0 °F57.2 °F94 %29.98 in5.0 miNNW (330°)6.9 mphRain-ThunderstormHeavy Thunderstorms and Rain
7:50 PM59.0 °F57.2 °F94 %29.98 in6.2 miVariable2.3 mphRainLight Rain
8:50 PM57.2 °F57.2 °F100 %29.98 in6.2 miVariable2.3 mphMostly Cloudy
9:50 PM59.0 °F57.2 °F94 %30.01 in5.0 miVariable2.3 mphRainRain
10:50 PM57.2 °F57.2 °F100 %30.01 in6.2 miVariable2.3 mphMostly Cloudy
Hourly data recorded from LIRZ, located miles away from Perugia, Italy







STORIES FROM OUR PARTNERS